Tracking 18980 objects as of 19-Feb-2018
HD Live streaming from Space Station
objects crossing your sky now

FENGYUN 1C DEB

Track FENGYUN 1C DEB now!
10-day predictions


NORAD ID: 30726
Int'l Code: 1999-025ASL
Perigee: 838.8 km
Apogee: 960.9 km
Inclination: 99.1 °
Period: 102.8 minutes
Semi major axis: 7270 km
RCS: 0.021 m2 (small)
Launch date: May 10, 1999
Source: People's Republic of China (PRC)
Launch site: Taiyaun Space Center, China (TSC)

Note: This is SATELLITE DEBRIS
aabbcc
Your satellite tracking list
Your tracking list is empty




NASA's NSSDC Master Catalog

Two Line Element Set (TLE):
1 30726U 99025ASL 18049.76307123 +.00000165 +00000-0 +13720-3 0  9992
2 30726 099.0975 353.8264 0084018 185.5971 244.2033 14.00314137559716
Source of the keplerian elements: AFSPC